PAF5320 RPLL-RPLL

Flight info

Callsign PAF5320
Flight time N/A
Altitude 5500
Route VFR
Aircraft C208/L-SDFGR/C

Departure

Time 2026-05-06 06:09
Airport Ninoy Aquino International Airport (RPLL)

Arrival

Time N/A
Airport Ninoy Aquino International Airport (RPLL)
Time Latitude Longitude Altitude Speed Heading
2026-05-06 05:54 14.51626 121.02643 67 ft 0 kts 89°
2026-05-06 06:02 14.51626 121.02645 64 ft 2 kts 87°
2026-05-06 06:03 14.51613 121.02694 65 ft 11 kts 127°
2026-05-06 06:03 14.51548 121.02728 67 ft 11 kts 160°
2026-05-06 06:03 14.51463 121.02739 64 ft 13 kts 213°
2026-05-06 06:03 14.51414 121.02660 67 ft 15 kts 240°
2026-05-06 06:04 14.51353 121.02550 68 ft 20 kts 240°
2026-05-06 06:04 14.51275 121.02410 67 ft 25 kts 240°
2026-05-06 06:04 14.51185 121.02247 69 ft 26 kts 240°
2026-05-06 06:04 14.51096 121.02087 64 ft 25 kts 240°
2026-05-06 06:05 14.51009 121.01932 68 ft 24 kts 239°
2026-05-06 06:05 14.50926 121.01782 63 ft 24 kts 241°
2026-05-06 06:05 14.50844 121.01636 60 ft 23 kts 240°
2026-05-06 06:05 14.50766 121.01495 67 ft 23 kts 240°
2026-05-06 06:06 14.50688 121.01356 68 ft 22 kts 239°
2026-05-06 06:06 14.50613 121.01221 68 ft 21 kts 239°
2026-05-06 06:06 14.50572 121.01153 68 ft 6 kts 204°
2026-05-06 06:06 14.50552 121.01158 64 ft 0 kts 144°
2026-05-06 06:07 14.50544 121.01164 68 ft 5 kts 146°
2026-05-06 06:07 14.50526 121.01231 65 ft 15 kts 82°
2026-05-06 06:07 14.50550 121.01365 69 ft 21 kts 73°
2026-05-06 06:07 14.50594 121.01462 64 ft 24 kts 62°
2026-05-06 06:08 14.50750 121.01744 67 ft 65 kts 60°
2026-05-06 06:08 14.51019 121.02203 151 ft 79 kts 63°
2026-05-06 06:08 14.51284 121.02728 295 ft 85 kts 64°
2026-05-06 06:08 14.51576 121.03262 511 ft 85 kts 64°
2026-05-06 06:09 14.51865 121.03780 757 ft 81 kts 64°
2026-05-06 06:09 14.52148 121.04315 874 ft 82 kts 66°
2026-05-06 06:09 14.52115 121.04881 1031 ft 87 kts 121°
2026-05-06 06:09 14.51640 121.05266 1324 ft 89 kts 149°
2026-05-06 06:10 14.51038 121.05499 1542 ft 96 kts 155°
2026-05-06 06:10 14.50332 121.05759 1588 ft 118 kts 157°
2026-05-06 06:10 14.49509 121.06042 1613 ft 132 kts 159°
2026-05-06 06:10 14.48614 121.06285 1496 ft 130 kts 161°
2026-05-06 06:11 14.47799 121.06524 1487 ft 116 kts 159°
2026-05-06 06:11 14.47045 121.06787 1492 ft 113 kts 157°
2026-05-06 06:11 14.46310 121.07072 1500 ft 112 kts 153°
2026-05-06 06:11 14.45589 121.07381 1510 ft 115 kts 151°
2026-05-06 06:12 14.44851 121.07730 1503 ft 118 kts 143°
2026-05-06 06:12 14.44499 121.08421 1497 ft 114 kts 82°
2026-05-06 06:12 14.44542 121.09202 1503 ft 110 kts 105°
2026-05-06 06:12 14.44318 121.09965 1492 ft 112 kts 110°
2026-05-06 06:13 14.43829 121.10601 1495 ft 114 kts 122°
2026-05-06 06:13 14.43373 121.11276 1499 ft 116 kts 124°
2026-05-06 06:13 14.42857 121.11907 1498 ft 113 kts 120°
2026-05-06 06:13 14.42378 121.12535 1510 ft 112 kts 125°
2026-05-06 06:14 14.41931 121.13178 1497 ft 109 kts 123°
2026-05-06 06:14 14.41230 121.13469 1484 ft 120 kts 180°
2026-05-06 06:14 14.40417 121.13427 1500 ft 114 kts 166°
2026-05-06 06:14 14.39645 121.13580 1506 ft 111 kts 151°
2026-05-06 06:15 14.39050 121.14035 1503 ft 106 kts 131°
2026-05-06 06:15 14.38459 121.14505 1507 ft 108 kts 133°
2026-05-06 06:15 14.38098 121.14867 1508 ft 111 kts 130°
2026-05-06 06:15 14.37313 121.15613 1596 ft 117 kts 129°
2026-05-06 06:16 14.36722 121.16201 1714 ft 119 kts 130°
2026-05-06 06:16 14.36125 121.16781 1872 ft 116 kts 129°
2026-05-06 06:16 14.35544 121.17364 2003 ft 116 kts 130°
2026-05-06 06:16 14.34969 121.17946 2038 ft 116 kts 131°
2026-05-06 06:17 14.34579 121.18331 2047 ft 118 kts 131°
2026-05-06 06:17 14.34376 121.18524 2066 ft 117 kts 131°
2026-05-06 06:18 14.30978 121.21907 2194 ft 119 kts 129°
2026-05-06 06:18 14.30430 121.22547 2204 ft 120 kts 124°
2026-05-06 06:19 14.29919 121.23228 2245 ft 120 kts 122°
2026-05-06 06:19 14.29431 121.23918 2354 ft 118 kts 122°
2026-05-06 06:19 14.28962 121.24622 2412 ft 120 kts 118°
2026-05-06 06:19 14.28625 121.25381 2488 ft 113 kts 101°
2026-05-06 06:20 14.28642 121.26171 2552 ft 112 kts 72°
2026-05-06 06:20 14.28952 121.26907 2608 ft 112 kts 63°
2026-05-06 06:20 14.29305 121.27642 2625 ft 117 kts 71°
2026-05-06 06:20 14.29600 121.28415 2719 ft 115 kts 70°
2026-05-06 06:21 14.29890 121.29165 2800 ft 113 kts 70°
2026-05-06 06:21 14.30202 121.29920 2837 ft 115 kts 69°
2026-05-06 06:21 14.30487 121.30693 2943 ft 115 kts 70°
2026-05-06 06:21 14.30777 121.31462 3036 ft 116 kts 69°
2026-05-06 06:22 14.30920 121.32253 3134 ft 115 kts 105°
2026-05-06 06:22 14.30351 121.32811 3212 ft 124 kts 159°
2026-05-06 06:22 14.29486 121.32646 3294 ft 134 kts 208°
2026-05-06 06:22 14.28949 121.31850 3365 ft 142 kts 257°
2026-05-06 06:23 14.29114 121.30876 3460 ft 139 kts 306°
2026-05-06 06:23 14.29860 121.30304 3501 ft 135 kts 351°
2026-05-06 06:23 14.30748 121.30437 3510 ft 130 kts 37°
2026-05-06 06:23 14.31192 121.31196 3520 ft 127 kts 86°
2026-05-06 06:24 14.30940 121.32049 3513 ft 128 kts 121°
2026-05-06 06:24 14.30498 121.32825 3519 ft 126 kts 113°
2026-05-06 06:24 14.30107 121.33635 3506 ft 126 kts 115°
2026-05-06 06:24 14.29680 121.34431 3514 ft 127 kts 115°
2026-05-06 06:25 14.29262 121.35234 3510 ft 127 kts 115°
2026-05-06 06:25 14.28852 121.36036 3508 ft 126 kts 115°
2026-05-06 06:25 14.28044 121.37620 3508 ft 125 kts 116°
2026-05-06 06:26 14.27626 121.38449 3533 ft 142 kts 113°
2026-05-06 06:26 14.27132 121.39403 3527 ft 149 kts 116°
2026-05-06 06:26 14.26658 121.40347 3513 ft 147 kts 116°
2026-05-06 06:26 14.26168 121.41244 3506 ft 144 kts 113°
2026-05-06 06:27 14.25732 121.42149 3512 ft 141 kts 116°
2026-05-06 06:27 14.25256 121.43032 3497 ft 141 kts 118°
2026-05-06 06:27 14.24544 121.43726 3504 ft 149 kts 152°
2026-05-06 06:27 14.23551 121.44045 3510 ft 149 kts 155°
2026-05-06 06:28 14.22582 121.44390 3531 ft 147 kts 155°
2026-05-06 06:28 14.21587 121.44739 3523 ft 152 kts 153°
2026-05-06 06:28 14.20580 121.45113 3494 ft 154 kts 155°
2026-05-06 06:28 14.19574 121.45435 3501 ft 149 kts 156°
2026-05-06 06:29 14.18581 121.45739 3504 ft 149 kts 157°
2026-05-06 06:29 14.17569 121.45935 3502 ft 149 kts 174°
2026-05-06 06:29 14.16533 121.45974 3525 ft 152 kts 170°
2026-05-06 06:29 14.15479 121.46087 3514 ft 156 kts 172°
2026-05-06 06:30 14.14403 121.46218 3490 ft 151 kts 162°
2026-05-06 06:30 14.13536 121.46684 3507 ft 141 kts 127°
2026-05-06 06:30 14.13370 121.47595 3577 ft 135 kts 77°
2026-05-06 06:30 14.13433 121.48610 3495 ft 146 kts 96°
2026-05-06 06:31 14.13271 121.49283 3515 ft 141 kts 103°
2026-05-06 06:31 14.12715 121.50475 3518 ft 142 kts 128°
2026-05-06 06:31 14.12080 121.51288 3495 ft 145 kts 122°
2026-05-06 06:31 14.11533 121.52073 3495 ft 128 kts 122°
2026-05-06 06:32 14.10987 121.52782 3495 ft 126 kts 123°
2026-05-06 06:32 14.10413 121.53514 3519 ft 138 kts 121°
2026-05-06 06:32 14.09821 121.54289 3526 ft 136 kts 124°
2026-05-06 06:32 14.09177 121.55015 3503 ft 140 kts 137°
2026-05-06 06:33 14.08230 121.55260 3532 ft 149 kts 174°
2026-05-06 06:33 14.07184 121.55309 3501 ft 151 kts 170°
2026-05-06 06:33 14.06155 121.55396 3553 ft 150 kts 167°
2026-05-06 06:33 14.05097 121.55493 3569 ft 149 kts 170°
2026-05-06 06:34 14.04144 121.55593 3599 ft 131 kts 169°
2026-05-06 06:34 14.03243 121.55669 3606 ft 128 kts 167°
2026-05-06 06:34 14.02371 121.55606 3602 ft 133 kts 200°
2026-05-06 06:34 14.01590 121.55091 3660 ft 133 kts 206°
2026-05-06 06:35 14.01043 121.54779 3693 ft 132 kts 203°
2026-05-06 06:35 14.00493 121.54504 3732 ft 133 kts 203°
2026-05-06 06:35 13.99690 121.54029 3736 ft 133 kts 206°
2026-05-06 06:35 13.98622 121.53442 3739 ft 132 kts 206°
2026-05-06 06:36 13.97560 121.52818 3828 ft 131 kts 204°
2026-05-06 06:36 13.96762 121.52362 4007 ft 131 kts 206°
2026-05-06 06:36 13.95975 121.51899 4133 ft 130 kts 204°
2026-05-06 06:36 13.95195 121.51451 4208 ft 129 kts 205°
2026-05-06 06:37 13.94416 121.50998 4244 ft 119 kts 208°
2026-05-06 06:37 13.93747 121.50584 4079 ft 109 kts 207°
2026-05-06 06:37 13.93049 121.50219 4048 ft 111 kts 199°
2026-05-06 06:37 13.92412 121.49856 4333 ft 104 kts 204°
2026-05-06 06:38 13.91740 121.49613 4449 ft 103 kts 184°
2026-05-06 06:38 13.91037 121.49551 4677 ft 103 kts 179°
2026-05-06 06:38 13.90325 121.49470 4807 ft 102 kts 174°
2026-05-06 06:38 13.89614 121.49424 4910 ft 102 kts 176°
2026-05-06 06:39 13.88904 121.49369 5065 ft 102 kts 179°
2026-05-06 06:39 13.88198 121.49314 5192 ft 101 kts 173°
2026-05-06 06:39 13.87491 121.49251 5365 ft 102 kts 180°
2026-05-06 06:39 13.86787 121.49184 5490 ft 107 kts 180°
2026-05-06 06:40 13.85997 121.49116 5510 ft 122 kts 179°
2026-05-06 06:40 13.85120 121.49072 5532 ft 135 kts 178°
2026-05-06 06:40 13.84145 121.49020 5515 ft 145 kts 179°
2026-05-06 06:40 13.83117 121.48963 5504 ft 149 kts 179°
2026-05-06 06:41 13.82094 121.48921 5501 ft 144 kts 178°
2026-05-06 06:41 13.81117 121.48879 5477 ft 139 kts 179°
2026-05-06 06:41 13.80158 121.48831 5434 ft 135 kts 171°
2026-05-06 06:41 13.79241 121.48919 5545 ft 119 kts 173°
2026-05-06 06:42 13.78584 121.48944 5990 ft 74 kts 159°
2026-05-06 06:42 13.78327 121.49158 3971 ft 145 kts 58°
2026-05-06 06:42 13.78564 121.50123 4184 ft 130 kts 80°
2026-05-06 06:42 13.78647 121.50841 4422 ft 64 kts 88°
2026-05-06 06:43 13.78464 121.50983 1967 ft 158 kts 167°
2026-05-06 06:43 13.77498 121.51701 1975 ft 149 kts 130°
2026-05-06 06:43 13.76892 121.52421 2557 ft 118 kts 124°
2026-05-06 06:43 13.76503 121.53100 2834 ft 110 kts 86°
2026-05-06 06:44 13.76873 121.53765 3055 ft 114 kts 41°
2026-05-06 06:44 13.77565 121.54173 3326 ft 109 kts 28°
2026-05-06 06:44 13.78111 121.54366 3850 ft 64 kts 16°
2026-05-06 06:44 13.78711 121.54563 3296 ft 100 kts 27°
2026-05-06 06:45 13.79370 121.54676 3510 ft 95 kts
2026-05-06 06:45 13.79895 121.54668 3810 ft 60 kts 37°
2026-05-06 06:45 13.79726 121.54491 1854 ft 191 kts 255°
2026-05-06 06:45 13.79782 121.53188 2198 ft 158 kts 275°
2026-05-06 06:46 13.79595 121.51760 2416 ft 152 kts 255°
2026-05-06 06:46 13.79403 121.51079 2367 ft 141 kts 253°
2026-05-06 06:46 13.79071 121.50141 2052 ft 140 kts 246°
2026-05-06 06:46 13.78715 121.49274 1853 ft 121 kts 248°
2026-05-06 06:47 13.78484 121.48496 1032 ft 42 kts 308°
2026-05-06 06:47 13.78633 121.48848 6 ft 62 kts 74°